Location: Brno
(49.2000°N, 16.6330°E)
Time: 14:36:01
(UTC+02:00)

ISS - Pass Details

Date: 22 April 2026
Orbit: 414 x 424 km, 51.6° (Epoch: 18 May)

Event Time Altitude Azimuth Distance (km) Brightness Sun altitude
Exits shadow 03:55:57 17° 160° (SSE) 1,146 -1.8 -16.5°
Maximum altitude 03:56:50 19° 140° (SE) 1,084 -1.7 -16.4°
Drops below altitude 10° 03:59:15 10° 94° (E) 1,503 -0.3 -16.1°
Sets 04:01:47 0° 75° (ENE) 2,374 1.2 -15.8°
